Location: Unspecified
(0.0000°N, 0.0000°E)
Time: 02:49:17
(UTC+00:00)

CZ-3C DEB - Pass Details

Date: 16 February 2026
Orbit: 506 x 35764 km, 20.4° (Epoch: 1 August)

Event Time Altitude Azimuth Distance (km) Brightness Sun altitude
Rises 12:51:36 0° 231° (SW) 3,848 ? 74.6°
Reaches altitude 10° 12:53:35 10° 219° (SW) 3,450 ? 74.3°
Maximum altitude 20:36:01 52° 56° (NE) 29,200 ? -34.6°
Enters shadow 21:36:02 48° 53° (NE) 21,751 ? -49.0°
Exits shadow 22:38:05 12° 65° (ENE) 11,845 ? -63.3°
Drops below altitude 10° 22:39:38 10° 66° (ENE) 11,649 ? -63.6°
Sets 22:45:49 0° 69° (ENE) 10,982 ? -65.0°
